TimeCST,TemperatureF,Dew PointF,Humidity,Sea Level PressureIn,VisibilityMPH,Wind Direction,Wind SpeedMPH,Gust SpeedMPH,PrecipitationIn,Events,Conditions,WindDirDegrees,DateUTC
12:53 AM,37.9,26.1,62,30.15,10.0,NW,8.1,-,N/A,,Clear,320,2013-02-28 06:53:00
1:53 AM,37.0,26.1,65,30.15,10.0,WNW,5.8,-,N/A,,Clear,290,2013-02-28 07:53:00
2:53 AM,37.0,26.1,65,30.16,10.0,WNW,9.2,-,N/A,,Clear,290,2013-02-28 08:53:00
3:53 AM,37.0,27.0,67,30.15,10.0,WNW,10.4,-,N/A,,Clear,290,2013-02-28 09:53:00
4:53 AM,36.0,27.0,70,30.16,10.0,WNW,10.4,-,N/A,,Clear,300,2013-02-28 10:53:00
5:53 AM,35.1,27.0,72,30.18,10.0,WNW,9.2,-,N/A,,Clear,290,2013-02-28 11:53:00
6:53 AM,34.0,27.0,75,30.18,10.0,WNW,8.1,-,N/A,,Clear,290,2013-02-28 12:53:00
7:53 AM,37.0,28.0,70,30.19,10.0,NW,10.4,-,N/A,,Clear,310,2013-02-28 13:53:00
8:53 AM,39.9,28.9,65,30.20,10.0,NW,12.7,-,N/A,,Clear,310,2013-02-28 14:53:00
9:53 AM,45.0,30.0,56,30.21,10.0,NW,8.1,-,N/A,,Clear,320,2013-02-28 15:53:00
10:53 AM,46.9,26.1,44,30.21,10.0,WNW,13.8,21.9,N/A,,Clear,300,2013-02-28 16:53:00
11:53 AM,48.9,26.1,41,30.20,10.0,Variable,4.6,21.9,N/A,,Clear,0,2013-02-28 17:53:00
12:53 PM,52.0,27.0,38,30.18,10.0,West,12.7,20.7,N/A,,Clear,280,2013-02-28 18:53:00
1:53 PM,53.1,28.0,38,30.15,10.0,NW,17.3,20.7,N/A,,Clear,310,2013-02-28 19:53:00
2:53 PM,53.1,28.0,38,30.13,10.0,NW,11.5,20.7,N/A,,Clear,310,2013-02-28 20:53:00
3:53 PM,54.0,28.0,37,30.12,10.0,West,16.1,-,N/A,,Clear,270,2013-02-28 21:53:00
4:53 PM,53.1,28.0,38,30.12,10.0,WNW,12.7,19.6,N/A,,Clear,290,2013-02-28 22:53:00
6:53 PM,50.0,28.9,44,30.13,10.0,West,8.1,-,N/A,,Clear,280,2013-03-01 00:53:00
7:53 PM,46.9,30.0,52,30.14,10.0,West,4.6,-,N/A,,Clear,280,2013-03-01 01:53:00
8:53 PM,45.0,30.0,56,30.14,10.0,NW,5.8,-,N/A,,Clear,310,2013-03-01 02:53:00
10:53 PM,42.1,30.0,62,30.17,10.0,NNW,4.6,-,N/A,,Clear,330,2013-03-01 04:53:00
11:53 PM,39.9,30.9,70,30.17,10.0,NNW,6.9,-,N/A,,Clear,330,2013-03-01 05:53:00